[[{"header":{"parameterUnit":"m.s-1","parameterCategory":1,"la1":30.2991,"la2":30.254,"lo1":-89.0895,"lo2":-89.0444,"dy":0.0017,"dx":0.0017,"nx":28,"ny":28,"refTime":"2023-10-30T09:00:00:Z","depth":0,"parameterNumber":2,"parameterNumberName":"U-component_of_WINDS"},"data":[0,0,0,0,0,0,0,0,0,0,0,0,0,0,0,0,0,0,0,0,0,0,0,0,0,0,0,0,0,0,0,0,0,0,0,0,0,0,0,0,0,0,0,0,0,0,0,0,0,0,0,0,0,0,0,0,0,0,1.186,1.1859,0,1.1776,1.1775,1.1774,1.1741,1.1741,1.1741,1.1741,1.1652,1.1649,1.1647,0,0,0,0,0,0,0,0,0,0,0,0,0,1.1991,1.1989,1.186,1.1859,1.1858,1.1776,1.1775,1.1774,1.1741,1.1741,1.1741,1.1742,1.1653,1.165,1.1647,0,0,0,0,0,0,0,0,0,0,0,0,0,1.1923,1.1988,1.1861,1.1832,1.1829,1.1776,1.1775,1.1774,1.1741,1.1741,1.1741,1.1742,1.1654,1.165,1.1646,1.1615,0,0,1.1634,1.1633,0,0,0,0,0,0,0,0,1.1927,1.1918,1.1837,1.1834,1.183,1.1769,1.1788,1.172,1.1741,1.1774,1.1741,1.1742,1.1691,1.1684,1.1667,1.1611,1.1607,1.1634,1.1632,1.163,1.1629,0,0,0,0,0,0,0,1.1932,1.1922,1.1827,1.1836,1.1832,1.1823,1.1813,1.1775,1.1731,1.1771,1.1768,1.1759,1.1689,1.1671,1.1665,1.1606,1.1634,1.1631,1.1628,1.1627,1.1521,1.1521,0,0,0,0,0,0,1.1942,1.1926,1.183,1.1824,1.188,1.182,1.181,1.1788,1.1732,1.1723,1.1759,1.1758,1.1677,1.1669,1.1661,1.1621,1.163,1.1626,1.1624,1.1522,1.1521,1.152,0,0,0,0,0,0,1.1944,1.1933,1.1833,1.1874,1.1861,1.1818,1.1794,1.1787,1.1769,1.1722,1.1714,1.1749,1.1677,1.1667,1.1627,1.1618,1.1625,1.1621,1.1522,1.1521,1.1521,1.1542,0,0,0,0,0,0,1.1948,1.1934,1.1923,1.1874,1.1859,1.1801,1.1793,1.1785,1.1762,1.176,1.1711,1.1703,1.1677,1.1633,1.1623,1.1613,1.1618,1.1523,1.1522,1.1521,1.1541,1.1542,1.1542,0,0,0,0,0,1.1953,1.1931,1.1922,1.1911,1.1843,1.1801,1.1792,1.1763,1.1762,1.1749,1.172,1.1705,1.1621,1.163,1.1618,1.1606,1.1523,1.1522,1.1521,1.1541,1.1542,1.1542,0,0,0,0,0,0,1.1978,1.1924,1.1914,1.1876,1.1843,1.1795,1.1778,1.1764,1.173,1.1729,1.1694,1.1683,1.1646,1.1622,1.1633,1.1574,1.1571,1.1568,1.159,1.159,1.159,1.1596,1.1615,0,0,0,0,0,1.1979,1.195,1.1904,1.1875,1.1859,1.1822,1.1802,1.1783,1.1747,1.1733,1.17,1.1666,1.1632,1.161,1.1576,1.1539,1.1527,1.1525,1.1525,1.1525,1.1522,1.1501,1.1499,1.1517,1.1517,1.1517,0,0,1.1981,1.1948,1.1931,1.1879,1.1851,1.1821,1.181,1.1778,1.1755,1.1728,1.1688,1.1664,1.1623,1.1585,1.1566,1.1563,1.1515,1.1524,1.1524,1.1521,1.15,1.1498,1.1497,1.1516,1.1516,1.1517,0,0,1.1968,1.1941,1.1913,1.1887,1.1846,1.1821,1.1815,1.1769,1.1752,1.1713,1.1692,1.1664,1.1606,1.1578,1.1556,1.1535,1.1519,1.1525,1.1525,1.1505,1.1503,1.1502,1.1494,1.1492,1.1522,1.1522,1.1522,0,1.1975,1.1929,1.1901,1.187,1.1848,1.1824,1.1795,1.1771,1.172,1.1705,1.1703,1.1631,1.1602,1.1557,1.1552,1.1535,1.1526,1.1529,1.1506,1.1504,1.1502,1.1494,1.1492,1.1523,1.1523,1.1523,1.1523,0,1.1939,1.1908,1.1891,1.1845,1.182,1.1791,1.1758,1.1737,1.1721,1.1696,1.1657,1.1621,1.158,1.1568,1.1551,1.1521,1.152,1.1513,1.1509,1.1502,1.1494,1.1491,1.1524,1.1524,1.1524,1.1524,0,0,1.1938,1.1878,1.1872,1.1851,1.1805,1.178,1.175,1.1711,1.1693,1.166,1.1633,1.1586,1.1579,1.1555,1.1534,1.1517,1.1502,1.1511,1.151,1.151,1.1467,1.1472,1.1469,1.1493,1.1492,1.1492,1.147,0,1.1919,1.1865,1.1839,1.1796,1.1767,1.1744,1.1718,1.1687,1.1664,1.1635,1.1609,1.1576,1.157,1.1555,1.1537,1.1508,1.1493,1.1509,1.1467,1.1466,1.1477,1.1465,1.147,1.1451,1.1467,1.1466,1.1466,0,1.1888,1.1856,1.1811,1.177,1.1756,1.1733,1.1696,1.1669,1.1633,1.1618,1.1592,1.1572,1.154,1.154,1.1495,1.1506,1.1488,1.1471,1.147,1.1464,1.1464,1.1457,1.1444,1.1441,1.1461,1.1461,1.1461,0,1.1891,1.1837,1.1803,1.1786,1.1736,1.1721,1.17,1.1664,1.1643,1.161,1.1596,1.156,1.1539,1.1512,1.1483,1.1486,1.1441,1.1438,1.1426,1.1427,1.1416,1.1417,1.1399,1.1406,1.1406,1.1406,1.1406,0,1.1871,1.1844,1.1804,1.1782,1.1751,1.1723,1.1693,1.167,1.1639,1.1613,1.1591,1.1567,1.1531,1.1502,1.148,1.1446,1.1437,1.1423,1.1417,1.1424,1.1426,1.141,1.1411,1.1406,1.1406,1.1406,1.1406,0,1.1868,1.184,1.1801,1.1759,1.1748,1.1727,1.169,1.1668,1.1645,1.1612,1.1603,1.1566,1.1532,1.1501,1.1455,1.144,1.1404,1.1398,1.1417,1.1413,1.1402,1.1404,1.1373,1.1367,1.138,1.138,1.1379,0,1.1857,1.1836,1.1791,1.1773,1.1752,1.1722,1.1701,1.1672,1.1651,1.161,1.1593,1.1557,1.1526,1.1472,1.1441,1.1405,1.1397,1.1389,1.1391,1.14,1.1396,1.1397,1.1395,1.1389,1.1389,1.1389,1.1389,0,1.1839,1.1827,1.1797,1.1763,1.1738,1.1709,1.168,1.1666,1.1632,1.1609,1.1574,1.155,1.1504,1.1468,1.143,1.1407,1.1392,1.1389,1.1384,1.139,1.1401,1.1394,1.1416,1.1389,1.1389,1.1389,1.1389,1.1389,1.1831,1.1811,1.1778,1.1745,1.1721,1.1694,1.1672,1.1647,1.1618,1.1578,1.1564,1.1528,1.1493,1.1441,1.1418,1.139,1.1387,1.138,1.1378,1.1377,1.1378,1.1408,1.1383,1.1383,1.1383,1.1383,1.1383,0,1.1812,1.1789,1.176,1.1721,1.1695,1.1685,1.1653,1.1632,1.1601,1.1571,1.1542,1.1502,1.1468,1.1435,1.1399,1.1383,1.1375,1.1374,1.1374,1.1369,1.1382,1.139,1.1381,1.1381,1.1381,1.1381,1.1381,1.1381,1.1798,1.1765,1.1749,1.1703,1.168,1.1646,1.1628,1.1604,1.158,1.1536,1.1508,1.1488,1.1457,1.1419,1.1387,1.1378,1.1366,1.1367,1.1356,1.1368,1.1368,1.1369,1.1376,1.1364,1.1364,1.1345,1.1345,1.1345]},{"header":{"parameterUnit":"m.s-1","parameterCategory":1,"la1":30.2991,"la2":30.254,"lo1":-89.0895,"lo2":-89.0444,"dy":0.0017,"dx":0.0017,"nx":28,"ny":28,"refTime":"2023-10-30T09:00:00:Z","depth":0,"parameterNumber":3,"parameterNumberName":"V-component_of_WINDS"},"data":[0,0,0,0,0,0,0,0,0,0,0,0,0,0,0,0,0,0,0,0,0,0,0,0,0,0,0,0,0,0,0,0,0,0,0,0,0,0,0,0,0,0,0,0,0,0,0,0,0,0,0,0,0,0,0,0,0,0,-8.545,-8.5452,0,-8.5681,-8.5683,-8.5686,-8.5595,-8.5589,-8.5584,-8.5579,-8.5808,-8.5819,-8.583,0,0,0,0,0,0,0,0,0,0,0,0,0,-8.4923,-8.4933,-8.545,-8.5453,-8.5455,-8.568,-8.5684,-8.5687,-8.5596,-8.5589,-8.5583,-8.5576,-8.5804,-8.5817,-8.5831,0,0,0,0,0,0,0,0,0,0,0,0,0,-8.5152,-8.4936,-8.5449,-8.5437,-8.5439,-8.568,-8.5684,-8.5687,-8.5597,-8.5589,-8.5581,-8.5573,-8.58,-8.5816,-8.5833,-8.6097,0,0,-8.5884,-8.5891,0,0,0,0,0,0,0,0,-8.5139,-8.5172,-8.5436,-8.5439,-8.544,-8.5601,-8.5582,-8.5824,-8.5599,-8.5537,-8.5579,-8.5569,-8.5745,-8.5766,-8.5827,-8.6108,-8.6117,-8.5885,-8.5895,-8.5902,-8.5907,0,0,0,0,0,0,0,-8.5124,-8.5161,-8.5541,-8.544,-8.5443,-8.5418,-8.5442,-8.5627,-8.5683,-8.5541,-8.5535,-8.5564,-8.5745,-8.5811,-8.5831,-8.6121,-8.5885,-8.5899,-8.591,-8.5916,-8.663,-8.6639,0,0,0,0,0,0,-8.5108,-8.5149,-8.5533,-8.5548,-8.5267,-8.5434,-8.5461,-8.5557,-8.5681,-8.5692,-8.5571,-8.5559,-8.5786,-8.5812,-8.5839,-8.6158,-8.5902,-8.5918,-8.5927,-8.6621,-8.6632,-8.6642,0,0,0,0,0,0,-8.5097,-8.5143,-8.5524,-8.5347,-8.5393,-8.5452,-8.5561,-8.5566,-8.5632,-8.5703,-8.5712,-8.5629,-8.5781,-8.5815,-8.6034,-8.6164,-8.5925,-8.594,-8.6611,-8.6625,-8.6637,-8.6796,0,0,0,0,0,0,-8.5082,-8.514,-8.5243,-8.535,-8.5403,-8.5718,-8.5569,-8.5576,-8.5662,-8.5649,-8.576,-8.577,-8.5777,-8.601,-8.6051,-8.6183,-8.5953,-8.6599,-8.6617,-8.6633,-8.678,-8.6813,-8.6842,0,0,0,0,0,-8.5064,-8.5276,-8.5248,-8.5295,-8.5533,-8.5726,-8.5756,-8.5762,-8.5673,-8.5776,-8.5821,-8.5767,-8.6143,-8.6033,-8.6078,-8.6217,-8.6591,-8.6612,-8.6632,-8.6766,-8.6807,-8.6842,0,0,0,0,0,0,-8.518,-8.529,-8.526,-8.5514,-8.5612,-8.571,-8.584,-8.5805,-8.5928,-8.591,-8.5909,-8.5935,-8.6161,-8.621,-8.6086,-8.6479,-8.6353,-8.6384,-8.644,-8.6479,-8.651,-8.6494,-8.5967,0,0,0,0,0,-8.5236,-8.5386,-8.5472,-8.5688,-8.5738,-8.5781,-8.5865,-8.5862,-8.5961,-8.6001,-8.6063,-8.616,-8.63,-8.6392,-8.6524,-8.6786,-8.6808,-8.6903,-8.6935,-8.696,-8.6987,-8.7129,-8.7172,-8.6708,-8.6708,-8.6708,0,0,-8.5351,-8.543,-8.5524,-8.5713,-8.5788,-8.5942,-8.5816,-8.5983,-8.6096,-8.6026,-8.6237,-8.6286,-8.6393,-8.6635,-8.6744,-8.6683,-8.712,-8.6986,-8.7006,-8.7019,-8.7154,-8.7198,-8.7237,-8.6722,-8.672,-8.6717,0,0,-8.5641,-8.5715,-8.5904,-8.5983,-8.6099,-8.6126,-8.6171,-8.6276,-8.6306,-8.6519,-8.6469,-8.6602,-8.6843,-8.6923,-8.6995,-8.7315,-8.727,-8.7358,-8.7522,-8.7661,-8.7697,-8.773,-8.7845,-8.7886,-8.7383,-8.7384,-8.7384,0,-8.5769,-8.6001,-8.6004,-8.6177,-8.6261,-8.6207,-8.6397,-8.6472,-8.6624,-8.6683,-8.6613,-8.6915,-8.6984,-8.7244,-8.7322,-8.7382,-8.7433,-8.7346,-8.7692,-8.7725,-8.7755,-8.7865,-8.7908,-8.7394,-8.7393,-8.7392,-8.7391,0,-8.6153,-8.6315,-8.6452,-8.6605,-8.6704,-8.6884,-8.6914,-8.7014,-8.7001,-8.7035,-8.7252,-8.7332,-8.7481,-8.7542,-8.753,-8.7801,-8.7759,-8.7691,-8.7564,-8.781,-8.7913,-8.7955,-8.7408,-8.7405,-8.7402,-8.7399,0,0,-8.6523,-8.6677,-8.6727,-8.6796,-8.6921,-8.7044,-8.7221,-8.7369,-8.7455,-8.7561,-8.771,-8.7915,-8.7854,-8.7935,-8.7931,-8.8053,-8.8303,-8.797,-8.7972,-8.803,-8.8607,-8.8659,-8.8708,-8.8273,-8.8281,-8.8287,-8.8598,0,-8.6823,-8.7138,-8.7146,-8.7433,-8.7582,-8.7532,-8.7686,-8.7778,-8.7814,-8.7944,-8.7982,-8.8129,-8.8035,-8.8085,-8.8203,-8.8248,-8.8419,-8.8225,-8.841,-8.8416,-8.8387,-8.8762,-8.8817,-8.9107,-8.8639,-8.8645,-8.865,0,-8.7216,-8.7339,-8.7642,-8.7746,-8.7809,-8.7947,-8.8084,-8.8209,-8.8312,-8.8329,-8.8422,-8.84,-8.8579,-8.8446,-8.8691,-8.856,-8.8635,-8.8669,-8.868,-8.8698,-8.8549,-8.8791,-8.9199,-8.9243,-8.8714,-8.8709,-8.8704,0,-8.7458,-8.7698,-8.791,-8.7971,-8.8097,-8.8196,-8.8253,-8.8348,-8.8436,-8.8555,-8.8612,-8.8748,-8.8824,-8.8929,-8.8944,-8.8846,-8.9191,-8.9059,-8.921,-8.921,-8.9286,-8.9282,-8.9713,-8.9333,-8.9332,-8.9331,-8.933,0,-8.7793,-8.798,-8.8021,-8.8152,-8.836,-8.8367,-8.8571,-8.862,-8.8705,-8.8843,-8.8806,-8.8936,-8.8947,-8.908,-8.9092,-8.9295,-8.9328,-8.9346,-8.9348,-8.9351,-8.9349,-8.9401,-8.9382,-8.9343,-8.934,-8.9338,-8.9336,0,-8.8098,-8.8133,-8.8362,-8.8464,-8.8493,-8.8642,-8.8728,-8.8852,-8.8885,-8.906,-8.9101,-8.9152,-8.9306,-8.9332,-8.9512,-8.952,-8.9763,-8.9742,-8.973,-8.9728,-8.9878,-8.9864,-9.0359,-9.0425,-9.0001,-9.0005,-9.0008,0,-8.8311,-8.8455,-8.8573,-8.8664,-8.8727,-8.8874,-8.8965,-8.8976,-8.9072,-8.9201,-8.9309,-8.9461,-8.9583,-8.9831,-8.9883,-9.0021,-9.0004,-9.0168,-9.0024,-9.0024,-9.0008,-9.0001,-9.0015,-9.0196,-9.0201,-9.0205,-9.0208,0,-8.8685,-8.8696,-8.883,-8.8972,-8.9082,-8.9193,-8.9298,-8.9374,-8.9399,-8.9508,-8.9668,-8.9763,-8.9949,-9.0099,-9.0237,-9.0291,-9.0255,-9.0253,-9.0295,-9.0301,-9.0288,-9.0298,-8.9807,-9.0241,-9.0238,-9.0236,-9.0234,-9.0232,-8.8952,-8.9078,-8.9181,-8.9332,-8.9413,-8.9512,-8.9634,-8.9683,-8.9817,-8.9972,-8.9969,-9.0144,-9.0242,-9.0423,-9.0488,-9.0623,-9.057,-9.0631,-9.0647,-9.0663,-9.0678,-9.0266,-9.0648,-9.0647,-9.0646,-9.0645,-9.0645,0,-8.9325,-8.939,-8.9529,-8.9678,-8.9797,-8.9754,-8.9867,-8.9969,-9.0125,-9.022,-9.0342,-9.0525,-9.0671,-9.0735,-9.0878,-9.0974,-9.096,-9.1011,-9.1005,-9.1018,-9.0717,-9.0667,-9.102,-9.102,-9.102,-9.102,-9.1019,-9.1019,-8.9534,-8.9745,-8.9768,-9.0018,-9.008,-9.0254,-9.0323,-9.0413,-9.049,-9.0698,-9.082,-9.0861,-9.0944,-9.1093,-9.1224,-9.1239,-9.1294,-9.1353,-9.136,-9.1077,-9.1039,-9.1003,-9.0956,-9.1364,-9.1365,-9.165,-9.1653,-9.1655]}]]